Year,Month,Day,Hour,Minute,Value (Times are PST for temperature in C)
2019,03,08,00,00,2.50
2019,03,08,00,01,2.60
2019,03,08,00,02,2.60
2019,03,08,00,03,2.70
2019,03,08,00,04,2.80
2019,03,08,00,05,2.80
2019,03,08,00,06,2.80
2019,03,08,00,07,2.90
2019,03,08,00,08,2.90
2019,03,08,00,09,2.90
2019,03,08,00,10,2.90
2019,03,08,00,11,3.00
2019,03,08,00,12,3.00
2019,03,08,00,13,3.00
2019,03,08,00,14,3.10
2019,03,08,00,15,3.10
2019,03,08,00,16,3.10
2019,03,08,00,17,3.10
2019,03,08,00,18,3.10
2019,03,08,00,19,3.10
2019,03,08,00,20,3.10
2019,03,08,00,21,3.10
2019,03,08,00,22,3.10
2019,03,08,00,23,3.10
2019,03,08,00,24,3.10
2019,03,08,00,25,3.10
2019,03,08,00,26,3.10
2019,03,08,00,27,3.10
2019,03,08,00,28,3.10
2019,03,08,00,29,3.10
2019,03,08,00,30,3.10
2019,03,08,00,31,3.10
2019,03,08,00,32,3.10
2019,03,08,00,33,3.10
2019,03,08,00,34,3.10
2019,03,08,00,35,3.10
2019,03,08,00,36,3.10
2019,03,08,00,37,3.10
2019,03,08,00,38,3.10
2019,03,08,00,39,3.10
2019,03,08,00,40,3.10
2019,03,08,00,41,3.10
2019,03,08,00,42,3.10
2019,03,08,00,43,3.10
2019,03,08,00,44,3.10
2019,03,08,00,45,3.00
2019,03,08,00,46,3.00
2019,03,08,00,47,3.00
2019,03,08,00,48,3.00
2019,03,08,00,49,3.00
2019,03,08,00,50,3.00
2019,03,08,00,51,3.00
2019,03,08,00,52,3.00
2019,03,08,00,53,3.00
2019,03,08,00,54,3.00
2019,03,08,00,55,3.00
2019,03,08,00,56,3.00
2019,03,08,00,57,3.00
2019,03,08,00,58,3.00
2019,03,08,00,59,3.00
2019,03,08,01,00,3.00
2019,03,08,01,01,3.00
2019,03,08,01,02,3.00
2019,03,08,01,03,3.00
2019,03,08,01,04,3.00
2019,03,08,01,05,3.00
2019,03,08,01,06,3.00
2019,03,08,01,07,3.00
2019,03,08,01,08,3.00
2019,03,08,01,09,3.00
2019,03,08,01,10,3.00
2019,03,08,01,11,3.00
2019,03,08,01,12,3.00
2019,03,08,01,13,3.00
2019,03,08,01,14,3.00
2019,03,08,01,15,3.00
2019,03,08,01,16,3.00
2019,03,08,01,17,2.90
2019,03,08,01,18,2.90
2019,03,08,01,19,2.90
2019,03,08,01,20,2.90
2019,03,08,01,21,2.90
2019,03,08,01,22,3.00
2019,03,08,01,23,2.90
2019,03,08,01,24,3.00
2019,03,08,01,25,3.00
2019,03,08,01,26,3.00
2019,03,08,01,27,3.00
2019,03,08,01,28,3.00
2019,03,08,01,29,3.00
2019,03,08,01,30,2.90
2019,03,08,01,31,2.90
2019,03,08,01,32,2.90
2019,03,08,01,33,2.90
2019,03,08,01,34,3.00
2019,03,08,01,35,3.00
2019,03,08,01,36,3.00
2019,03,08,01,37,3.00
2019,03,08,01,38,3.00
2019,03,08,01,39,3.00
2019,03,08,01,40,3.00
2019,03,08,01,41,3.00
2019,03,08,01,42,3.00
2019,03,08,01,43,3.00
2019,03,08,01,44,3.00
2019,03,08,01,45,3.00
2019,03,08,01,46,3.00
2019,03,08,01,47,3.00
2019,03,08,01,48,3.00
2019,03,08,01,49,3.00
2019,03,08,01,50,2.90
2019,03,08,01,51,2.90
2019,03,08,01,52,2.90
2019,03,08,01,53,2.90
2019,03,08,01,54,2.90
2019,03,08,01,55,2.90
2019,03,08,01,56,2.90
2019,03,08,01,57,2.90
2019,03,08,01,58,2.80
2019,03,08,01,59,2.80
2019,03,08,02,00,2.80
2019,03,08,02,01,2.80
2019,03,08,02,02,2.80
2019,03,08,02,03,2.80
2019,03,08,02,04,2.80
2019,03,08,02,05,2.80
2019,03,08,02,06,2.70
2019,03,08,02,07,2.70
2019,03,08,02,08,2.70
2019,03,08,02,09,2.70
2019,03,08,02,10,2.60
2019,03,08,02,11,2.60
2019,03,08,02,12,2.60
2019,03,08,02,13,2.60
2019,03,08,02,14,2.50
2019,03,08,02,15,2.50
2019,03,08,02,16,2.50
2019,03,08,02,17,2.50
2019,03,08,02,18,2.50
2019,03,08,02,19,2.40
2019,03,08,02,20,2.40
2019,03,08,02,21,2.40
2019,03,08,02,22,2.40
2019,03,08,02,23,2.40
2019,03,08,02,24,2.40
2019,03,08,02,25,2.40
2019,03,08,02,26,2.30
2019,03,08,02,27,2.30
2019,03,08,02,28,2.30
2019,03,08,02,29,2.30
2019,03,08,02,30,2.30
2019,03,08,02,31,2.30
2019,03,08,02,32,2.30
2019,03,08,02,33,2.30
2019,03,08,02,34,2.20
2019,03,08,02,35,2.20
2019,03,08,02,36,2.20
2019,03,08,02,37,2.20
2019,03,08,02,38,2.20
2019,03,08,02,39,2.10
2019,03,08,02,40,2.10
2019,03,08,02,41,2.10
2019,03,08,02,42,2.00
2019,03,08,02,43,2.00
2019,03,08,02,44,1.90
2019,03,08,02,45,1.90
2019,03,08,02,46,1.90
2019,03,08,02,47,1.80
2019,03,08,02,48,1.80
2019,03,08,02,49,1.80
2019,03,08,02,50,1.80
2019,03,08,02,51,1.80
2019,03,08,02,52,1.70
2019,03,08,02,53,1.70
2019,03,08,02,54,1.70
2019,03,08,02,55,1.70
2019,03,08,02,56,1.60
2019,03,08,02,57,1.60
2019,03,08,02,58,1.60
2019,03,08,02,59,1.50
2019,03,08,03,00,1.50
2019,03,08,03,01,1.40
2019,03,08,03,02,1.40
2019,03,08,03,03,1.40
2019,03,08,03,04,1.40
2019,03,08,03,05,1.40
2019,03,08,03,06,1.30
2019,03,08,03,07,1.30
2019,03,08,03,08,1.30
2019,03,08,03,09,1.30
2019,03,08,03,10,1.20
2019,03,08,03,11,1.20
2019,03,08,03,12,1.20
2019,03,08,03,13,1.20
2019,03,08,03,14,1.20
2019,03,08,03,15,1.20
2019,03,08,03,16,1.20
2019,03,08,03,17,1.20
2019,03,08,03,18,1.20
2019,03,08,03,19,1.20
2019,03,08,03,20,1.20
2019,03,08,03,21,1.20
2019,03,08,03,22,1.20
2019,03,08,03,23,1.20
2019,03,08,03,24,1.20
2019,03,08,03,25,1.20
2019,03,08,03,26,1.20
2019,03,08,03,27,1.20
2019,03,08,03,28,1.30
2019,03,08,03,29,1.30
2019,03,08,03,30,1.30
2019,03,08,03,31,1.30
2019,03,08,03,32,1.30
2019,03,08,03,33,1.30
2019,03,08,03,34,1.30
2019,03,08,03,35,1.30
2019,03,08,03,36,1.30
2019,03,08,03,37,1.30
2019,03,08,03,38,1.40
2019,03,08,03,39,1.40
2019,03,08,03,40,1.50
2019,03,08,03,41,1.50
2019,03,08,03,42,1.60
2019,03,08,03,43,1.60
2019,03,08,03,44,1.60
2019,03,08,03,45,1.60
2019,03,08,03,46,1.60
2019,03,08,03,47,1.60
2019,03,08,03,48,1.60
2019,03,08,03,49,1.60
2019,03,08,03,50,1.60
2019,03,08,03,51,1.60
2019,03,08,03,52,1.60
2019,03,08,03,53,1.60
2019,03,08,03,54,1.60
2019,03,08,03,55,1.50
2019,03,08,03,56,1.60
2019,03,08,03,57,1.60
2019,03,08,03,58,1.60
2019,03,08,03,59,1.60
2019,03,08,04,00,1.60
2019,03,08,04,01,1.60
2019,03,08,04,02,1.60
2019,03,08,04,03,1.60
2019,03,08,04,04,1.60
2019,03,08,04,05,1.60
2019,03,08,04,06,1.60
2019,03,08,04,07,1.60
2019,03,08,04,08,1.60
2019,03,08,04,09,1.60
2019,03,08,04,10,1.60
2019,03,08,04,11,1.60
2019,03,08,04,12,1.60
2019,03,08,04,13,1.60
2019,03,08,04,14,1.70
2019,03,08,04,15,1.70
2019,03,08,04,16,1.70
2019,03,08,04,17,1.70
2019,03,08,04,18,1.70
2019,03,08,04,19,1.70
2019,03,08,04,20,1.70
2019,03,08,04,21,1.80
2019,03,08,04,22,1.80
2019,03,08,04,23,1.80
2019,03,08,04,24,1.80
2019,03,08,04,25,1.80
2019,03,08,04,26,1.80
2019,03,08,04,27,1.80
2019,03,08,04,28,1.80
2019,03,08,04,29,1.80
2019,03,08,04,30,1.80
2019,03,08,04,31,1.80
2019,03,08,04,32,1.80
2019,03,08,04,33,1.80
2019,03,08,04,34,1.70
2019,03,08,04,35,1.70
2019,03,08,04,36,1.70
2019,03,08,04,37,1.70
2019,03,08,04,38,1.70
2019,03,08,04,39,1.70
2019,03,08,04,40,1.70
2019,03,08,04,41,1.60
2019,03,08,04,42,1.60
2019,03,08,04,43,1.60
2019,03,08,04,44,1.60
2019,03,08,04,45,1.60
2019,03,08,04,46,1.60
2019,03,08,04,47,1.50
2019,03,08,04,48,1.50
2019,03,08,04,49,1.50
2019,03,08,04,50,1.40
2019,03,08,04,51,1.40
2019,03,08,04,52,1.40
2019,03,08,04,53,1.40
2019,03,08,04,54,1.40
2019,03,08,04,55,1.40
2019,03,08,04,56,1.40
2019,03,08,04,57,1.30
2019,03,08,04,58,1.30
2019,03,08,04,59,1.30
2019,03,08,05,00,1.30
2019,03,08,05,01,1.30
2019,03,08,05,02,1.30
2019,03,08,05,03,1.30
2019,03,08,05,04,1.30
2019,03,08,05,05,1.30
2019,03,08,05,06,1.30
2019,03,08,05,07,1.20
2019,03,08,05,08,1.20
2019,03,08,05,09,1.20
2019,03,08,05,10,1.20
2019,03,08,05,11,1.20
2019,03,08,05,12,1.20
2019,03,08,05,13,1.20
2019,03,08,05,14,1.20
2019,03,08,05,15,1.20
2019,03,08,05,16,1.20
2019,03,08,05,17,1.20
2019,03,08,05,18,1.20
2019,03,08,05,19,1.20
2019,03,08,05,20,1.20
2019,03,08,05,21,1.10
2019,03,08,05,22,1.10
2019,03,08,05,23,1.10
2019,03,08,05,24,1.10
2019,03,08,05,25,1.10
2019,03,08,05,26,1.10
2019,03,08,05,27,1.10
2019,03,08,05,28,1.10
2019,03,08,05,29,1.10
2019,03,08,05,30,1.10
2019,03,08,05,31,1.10
2019,03,08,05,32,1.10
2019,03,08,05,33,1.10
2019,03,08,05,34,1.10
2019,03,08,05,35,1.10
2019,03,08,05,36,1.10
2019,03,08,05,37,1.10
2019,03,08,05,38,1.10
2019,03,08,05,39,1.10
2019,03,08,05,40,1.10
2019,03,08,05,41,1.10
2019,03,08,05,42,1.10
2019,03,08,05,43,1.10
2019,03,08,05,44,1.10
2019,03,08,05,45,1.10
2019,03,08,05,46,1.10
2019,03,08,05,47,1.10
2019,03,08,05,48,1.10
2019,03,08,05,49,1.10
2019,03,08,05,50,1.10
2019,03,08,05,51,1.10
2019,03,08,05,52,1.20
2019,03,08,05,53,1.20
2019,03,08,05,54,1.20
2019,03,08,05,55,1.20
2019,03,08,05,56,1.20
2019,03,08,05,57,1.20
2019,03,08,05,58,1.20
2019,03,08,05,59,1.20
2019,03,08,06,00,1.20
2019,03,08,06,01,1.20
2019,03,08,06,02,1.20
2019,03,08,06,03,1.20
2019,03,08,06,04,1.20
2019,03,08,06,05,1.20
2019,03,08,06,06,1.20
2019,03,08,06,07,1.20
2019,03,08,06,08,1.30
2019,03,08,06,09,1.20
2019,03,08,06,10,1.30
2019,03,08,06,11,1.20
2019,03,08,06,12,1.30
2019,03,08,06,13,1.30
2019,03,08,06,14,1.30
2019,03,08,06,15,1.30
2019,03,08,06,16,1.30
2019,03,08,06,17,1.30
2019,03,08,06,18,1.30
2019,03,08,06,19,1.30
2019,03,08,06,20,1.30
2019,03,08,06,21,1.30
2019,03,08,06,22,1.30
2019,03,08,06,23,1.30
2019,03,08,06,24,1.30
2019,03,08,06,25,1.30
2019,03,08,06,26,1.30
2019,03,08,06,27,1.30
2019,03,08,06,28,1.30
2019,03,08,06,29,1.30
2019,03,08,06,30,1.30
2019,03,08,06,31,1.30
2019,03,08,06,32,1.30
2019,03,08,06,33,1.20
2019,03,08,06,34,1.20
2019,03,08,06,35,1.20
2019,03,08,06,36,1.20
2019,03,08,06,37,1.20
2019,03,08,06,38,1.20
2019,03,08,06,39,1.20
2019,03,08,06,40,1.20
2019,03,08,06,41,1.20
2019,03,08,06,42,1.20
2019,03,08,06,43,1.20
2019,03,08,06,44,1.20
2019,03,08,06,45,1.10
2019,03,08,06,46,1.10
2019,03,08,06,47,1.10
2019,03,08,06,48,1.10
2019,03,08,06,49,1.10
2019,03,08,06,50,1.10
2019,03,08,06,51,1.10
2019,03,08,06,52,1.10
2019,03,08,06,53,1.10
2019,03,08,06,54,1.10
2019,03,08,06,55,1.10
2019,03,08,06,56,1.10
2019,03,08,06,57,1.10
2019,03,08,06,58,1.10
2019,03,08,06,59,1.10
2019,03,08,07,00,1.10
2019,03,08,07,01,1.10
2019,03,08,07,02,1.10
2019,03,08,07,03,1.00
2019,03,08,07,04,1.00
2019,03,08,07,05,1.00
2019,03,08,07,06,0.90
2019,03,08,07,07,0.90
2019,03,08,07,08,0.90
2019,03,08,07,09,0.90
2019,03,08,07,10,0.90
2019,03,08,07,11,0.90
2019,03,08,07,12,0.90
2019,03,08,07,13,0.90
2019,03,08,07,14,0.90
2019,03,08,07,15,0.90
2019,03,08,07,16,0.90
2019,03,08,07,17,0.90
2019,03,08,07,18,0.90
2019,03,08,07,19,0.90
2019,03,08,07,20,0.90
2019,03,08,07,21,1.00
2019,03,08,07,22,1.00
2019,03,08,07,23,1.00
2019,03,08,07,24,1.00
2019,03,08,07,25,1.00
2019,03,08,07,26,1.00
2019,03,08,07,27,1.00
2019,03,08,07,28,1.00
2019,03,08,07,29,1.00
2019,03,08,07,30,1.00
2019,03,08,07,31,1.00
2019,03,08,07,32,1.00
2019,03,08,07,33,1.10
2019,03,08,07,34,1.10
2019,03,08,07,35,1.10
2019,03,08,07,36,1.10
2019,03,08,07,37,1.10
2019,03,08,07,38,1.10
2019,03,08,07,39,1.20
2019,03,08,07,40,1.20
2019,03,08,07,41,1.20
2019,03,08,07,42,1.20
2019,03,08,07,43,1.20
2019,03,08,07,44,1.20
2019,03,08,07,45,1.20
2019,03,08,07,46,1.20
2019,03,08,07,47,1.20
2019,03,08,07,48,1.20
2019,03,08,07,49,1.20
2019,03,08,07,50,1.20
2019,03,08,07,51,1.30
2019,03,08,07,52,1.30
2019,03,08,07,53,1.30
2019,03,08,07,54,1.30
2019,03,08,07,55,1.30
2019,03,08,07,56,1.30
2019,03,08,07,57,1.30
2019,03,08,07,58,1.30
2019,03,08,07,59,1.40
2019,03,08,08,00,1.40
2019,03,08,08,01,1.40
2019,03,08,08,02,1.40
2019,03,08,08,03,1.50
2019,03,08,08,04,1.50
2019,03,08,08,05,1.60
2019,03,08,08,06,1.60
2019,03,08,08,07,1.60
2019,03,08,08,08,1.60
2019,03,08,08,09,1.70
2019,03,08,08,10,1.70
2019,03,08,08,11,1.70
2019,03,08,08,12,1.70
2019,03,08,08,13,1.80
2019,03,08,08,14,1.80
2019,03,08,08,15,1.80
2019,03,08,08,16,1.80
2019,03,08,08,17,1.80
2019,03,08,08,18,1.90
2019,03,08,08,19,1.90
2019,03,08,08,20,1.90
2019,03,08,08,21,1.90
2019,03,08,08,22,1.90
2019,03,08,08,23,1.90
2019,03,08,08,24,2.00
2019,03,08,08,25,2.00
2019,03,08,08,26,2.00
2019,03,08,08,27,2.00
2019,03,08,08,28,2.00
2019,03,08,08,29,2.00
2019,03,08,08,30,2.00
2019,03,08,08,31,2.00
2019,03,08,08,32,2.10
2019,03,08,08,33,2.10
2019,03,08,08,34,2.10
2019,03,08,08,35,2.10
2019,03,08,08,36,2.20
2019,03,08,08,37,2.20
2019,03,08,08,38,2.20
2019,03,08,08,39,2.20
2019,03,08,08,40,2.20
2019,03,08,08,41,2.20
2019,03,08,08,42,2.20
2019,03,08,08,43,2.20
2019,03,08,08,44,2.20
2019,03,08,08,45,2.20
2019,03,08,08,46,2.20
2019,03,08,08,47,2.20
2019,03,08,08,48,2.10
2019,03,08,08,49,2.10
2019,03,08,08,50,2.20
2019,03,08,08,51,2.20
2019,03,08,08,52,2.20
2019,03,08,08,53,2.10
2019,03,08,08,54,2.10
2019,03,08,08,55,2.10
2019,03,08,08,56,2.10
2019,03,08,08,57,2.10
2019,03,08,08,58,2.10
2019,03,08,08,59,2.10
2019,03,08,09,00,2.10
2019,03,08,09,01,2.10
2019,03,08,09,02,2.10
2019,03,08,09,03,2.10
2019,03,08,09,04,2.10
2019,03,08,09,05,2.10
2019,03,08,09,06,2.20
2019,03,08,09,07,2.20
2019,03,08,09,08,2.20
2019,03,08,09,09,2.20
2019,03,08,09,10,2.20
2019,03,08,09,11,2.20
2019,03,08,09,12,2.10
2019,03,08,09,13,2.20
2019,03,08,09,14,2.20
2019,03,08,09,15,2.20
2019,03,08,09,16,2.20
2019,03,08,09,17,2.10
2019,03,08,09,18,2.20
2019,03,08,09,19,2.20
2019,03,08,09,20,2.10
2019,03,08,09,21,2.10
2019,03,08,09,22,2.10
2019,03,08,09,23,2.00
2019,03,08,09,24,2.00
2019,03,08,09,25,1.90
2019,03,08,09,26,1.80
2019,03,08,09,27,1.80
2019,03,08,09,28,1.70
2019,03,08,09,29,1.60
2019,03,08,09,30,1.60
2019,03,08,09,31,1.50
2019,03,08,09,32,1.50
2019,03,08,09,33,1.40
2019,03,08,09,34,1.40
2019,03,08,09,35,1.30
2019,03,08,09,36,1.30
2019,03,08,09,37,1.30
2019,03,08,09,38,1.20
2019,03,08,09,39,1.20
2019,03,08,09,40,1.20
2019,03,08,09,41,1.20
2019,03,08,09,42,1.20
2019,03,08,09,43,1.20
2019,03,08,09,44,1.20
2019,03,08,09,45,1.20
2019,03,08,09,46,1.20
2019,03,08,09,47,1.30
2019,03,08,09,48,1.30
2019,03,08,09,49,1.30
2019,03,08,09,50,1.30
2019,03,08,09,51,1.40
2019,03,08,09,52,1.40
2019,03,08,09,53,1.50
2019,03,08,09,54,1.50
2019,03,08,09,55,1.50
2019,03,08,09,56,1.60
2019,03,08,09,57,1.60
2019,03,08,09,58,1.60
2019,03,08,09,59,1.60
2019,03,08,10,00,1.70
2019,03,08,10,01,1.70
2019,03,08,10,02,1.70
2019,03,08,10,03,1.80
2019,03,08,10,04,1.80
2019,03,08,10,05,1.80
2019,03,08,10,06,1.90
2019,03,08,10,07,1.90
2019,03,08,10,08,1.90
2019,03,08,10,09,1.90
2019,03,08,10,10,1.90
2019,03,08,10,11,1.90
2019,03,08,10,12,1.90
2019,03,08,10,13,1.90
2019,03,08,10,14,2.00
2019,03,08,10,15,2.00
2019,03,08,10,16,2.00
2019,03,08,10,17,2.00
2019,03,08,10,18,2.00
2019,03,08,10,19,2.00
2019,03,08,10,20,2.00
2019,03,08,10,21,2.00
2019,03,08,10,22,2.00
2019,03,08,10,23,2.00
2019,03,08,10,24,2.10
2019,03,08,10,25,2.10
2019,03,08,10,26,2.10
2019,03,08,10,27,2.10
2019,03,08,10,28,2.10
2019,03,08,10,29,2.20
2019,03,08,10,30,2.20
2019,03,08,10,31,2.20
2019,03,08,10,32,2.30
2019,03,08,10,33,2.30
2019,03,08,10,34,2.30
2019,03,08,10,35,2.30
2019,03,08,10,36,2.40
2019,03,08,10,37,2.40
2019,03,08,10,38,2.40
2019,03,08,10,39,2.40
2019,03,08,10,40,2.50
2019,03,08,10,41,2.50
2019,03,08,10,42,2.50
2019,03,08,10,43,2.50
2019,03,08,10,44,2.50
2019,03,08,10,45,2.50
2019,03,08,10,46,2.50
2019,03,08,10,47,2.50
2019,03,08,10,48,2.50
2019,03,08,10,49,2.50
2019,03,08,10,50,2.50
2019,03,08,10,51,2.50
2019,03,08,10,52,2.50
2019,03,08,10,53,2.50
2019,03,08,10,54,2.50
2019,03,08,10,55,2.60
2019,03,08,10,56,2.60
2019,03,08,10,57,2.60
2019,03,08,10,58,2.60
2019,03,08,10,59,2.60
2019,03,08,11,00,2.60
2019,03,08,11,01,2.60
2019,03,08,11,02,2.60
2019,03,08,11,03,2.60
2019,03,08,11,04,2.60
2019,03,08,11,05,2.60
2019,03,08,11,06,2.60
2019,03,08,11,07,2.70
2019,03,08,11,08,2.70
2019,03,08,11,09,2.70
2019,03,08,11,10,2.70
2019,03,08,11,11,2.70
2019,03,08,11,12,2.70
2019,03,08,11,13,2.70
2019,03,08,11,14,2.70
2019,03,08,11,15,2.70
2019,03,08,11,16,2.70
2019,03,08,11,17,2.70
2019,03,08,11,18,2.70
2019,03,08,11,19,2.70
2019,03,08,11,20,2.70
2019,03,08,11,21,2.70
2019,03,08,11,22,2.80
2019,03,08,11,23,2.80
2019,03,08,11,24,2.80
2019,03,08,11,25,2.80
2019,03,08,11,26,2.90
2019,03,08,11,27,2.90
2019,03,08,11,28,2.90
2019,03,08,11,29,2.90
2019,03,08,11,30,2.90
2019,03,08,11,31,2.90
2019,03,08,11,32,2.90
2019,03,08,11,33,3.00
2019,03,08,11,34,3.00
2019,03,08,11,35,3.10
2019,03,08,11,36,3.10
2019,03,08,11,37,3.10
2019,03,08,11,38,3.10
2019,03,08,11,39,3.10
2019,03,08,11,40,3.10
2019,03,08,11,41,3.10
2019,03,08,11,42,3.10
2019,03,08,11,43,3.10
2019,03,08,11,44,3.10
2019,03,08,11,45,3.10
2019,03,08,11,46,3.10
2019,03,08,11,47,3.20
2019,03,08,11,48,3.20
2019,03,08,11,49,3.20
2019,03,08,11,50,3.20
2019,03,08,11,51,3.20
2019,03,08,11,52,3.20
2019,03,08,11,53,3.20
2019,03,08,11,54,3.30
2019,03,08,11,55,3.30
2019,03,08,11,56,3.40
2019,03,08,11,57,3.50
2019,03,08,11,58,3.50
2019,03,08,11,59,3.40
2019,03,08,12,00,3.40
2019,03,08,12,01,3.40
2019,03,08,12,02,3.40
2019,03,08,12,03,3.50
2019,03,08,12,04,3.60
2019,03,08,12,05,3.70
2019,03,08,12,06,3.70
2019,03,08,12,07,3.70
2019,03,08,12,08,3.80
2019,03,08,12,09,3.80
2019,03,08,12,10,3.90
2019,03,08,12,11,3.90
2019,03,08,12,12,3.80
2019,03,08,12,13,3.80
2019,03,08,12,14,3.70
2019,03,08,12,15,3.70
2019,03,08,12,16,3.60
2019,03,08,12,17,3.60
2019,03,08,12,18,3.60
2019,03,08,12,19,3.60
2019,03,08,12,20,3.60
2019,03,08,12,21,3.60
2019,03,08,12,22,3.70
2019,03,08,12,23,3.70
2019,03,08,12,24,3.80
2019,03,08,12,25,3.90
2019,03,08,12,26,4.00
2019,03,08,12,27,4.00
2019,03,08,12,28,4.10
2019,03,08,12,29,4.10
2019,03,08,12,30,4.20
2019,03,08,12,31,4.30
2019,03,08,12,32,4.30
2019,03,08,12,33,4.40
2019,03,08,12,34,4.40
2019,03,08,12,35,4.40
2019,03,08,12,36,4.40
2019,03,08,12,37,4.30
2019,03,08,12,38,4.30
2019,03,08,12,39,4.30
2019,03,08,12,40,4.30
2019,03,08,12,41,4.30
2019,03,08,12,42,4.20
2019,03,08,12,43,4.20
2019,03,08,12,44,4.20
2019,03,08,12,45,4.20
2019,03,08,12,46,4.20
2019,03,08,12,47,4.30
2019,03,08,12,48,4.30
2019,03,08,12,49,4.40
2019,03,08,12,50,4.50
2019,03,08,12,51,4.50
2019,03,08,12,52,4.50
2019,03,08,12,53,4.40
2019,03,08,12,54,4.40
2019,03,08,12,55,4.30
2019,03,08,12,56,4.30
2019,03,08,12,57,4.20
2019,03,08,12,58,4.20
2019,03,08,12,59,4.30
2019,03,08,13,00,4.30
2019,03,08,13,01,4.30
2019,03,08,13,02,4.30
2019,03,08,13,03,4.40
2019,03,08,13,04,4.40
2019,03,08,13,05,4.40
2019,03,08,13,06,4.40
2019,03,08,13,07,4.40
2019,03,08,13,08,4.30
2019,03,08,13,09,4.30
2019,03,08,13,10,4.30
2019,03,08,13,11,4.30
2019,03,08,13,12,4.30
2019,03,08,13,13,4.30
2019,03,08,13,14,4.30
2019,03,08,13,15,4.40
2019,03,08,13,16,4.40
2019,03,08,13,17,4.40
2019,03,08,13,18,4.40
2019,03,08,13,19,4.50
2019,03,08,13,20,4.50
2019,03,08,13,21,4.60
2019,03,08,13,22,4.70
2019,03,08,13,23,4.70
2019,03,08,13,24,4.70
2019,03,08,13,25,4.70
2019,03,08,13,26,4.70
2019,03,08,13,27,4.70
2019,03,08,13,28,4.60
2019,03,08,13,29,4.50
2019,03,08,13,30,4.40
2019,03,08,13,31,4.30
2019,03,08,13,32,4.20
2019,03,08,13,33,4.20
2019,03,08,13,34,4.10
2019,03,08,13,35,4.10
2019,03,08,13,36,4.10
2019,03,08,13,37,4.10
2019,03,08,13,38,4.20
2019,03,08,13,39,4.20
2019,03,08,13,40,4.20
2019,03,08,13,41,4.20
2019,03,08,13,42,4.30
2019,03,08,13,43,4.30
2019,03,08,13,44,4.30
2019,03,08,13,45,4.30
2019,03,08,13,46,4.40
2019,03,08,13,47,4.40
2019,03,08,13,48,4.50
2019,03,08,13,49,4.50
2019,03,08,13,50,4.40
2019,03,08,13,51,4.40
2019,03,08,13,52,4.40
2019,03,08,13,53,4.40
2019,03,08,13,54,4.30
2019,03,08,13,55,4.30
2019,03,08,13,56,4.30
2019,03,08,13,57,4.30
2019,03,08,13,58,4.30
2019,03,08,13,59,4.30
2019,03,08,14,00,4.30
2019,03,08,14,01,4.30
2019,03,08,14,02,4.30
2019,03,08,14,03,4.30
2019,03,08,14,04,4.30
2019,03,08,14,05,4.40
2019,03,08,14,06,4.40
2019,03,08,14,07,4.40
2019,03,08,14,08,4.50
2019,03,08,14,09,4.60
2019,03,08,14,10,4.70
2019,03,08,14,11,4.70
2019,03,08,14,12,4.70
2019,03,08,14,13,4.70
2019,03,08,14,14,4.80
2019,03,08,14,15,4.80
2019,03,08,14,16,4.90
2019,03,08,14,17,4.90
2019,03,08,14,18,4.90
2019,03,08,14,19,4.90
2019,03,08,14,20,4.90
2019,03,08,14,21,4.90
2019,03,08,14,22,4.90
2019,03,08,14,23,4.90
2019,03,08,14,24,4.90
2019,03,08,14,25,4.90
2019,03,08,14,26,4.90
2019,03,08,14,27,4.90
2019,03,08,14,28,4.90
2019,03,08,14,29,4.80
2019,03,08,14,30,4.80
2019,03,08,14,31,4.80
2019,03,08,14,32,4.90
2019,03,08,14,33,4.90
2019,03,08,14,34,4.80
2019,03,08,14,35,4.80
2019,03,08,14,36,4.80
2019,03,08,14,37,4.80
2019,03,08,14,38,4.70
2019,03,08,14,39,4.70
2019,03,08,14,40,4.70
2019,03,08,14,41,4.70
2019,03,08,14,42,4.70
2019,03,08,14,43,4.70
2019,03,08,14,44,4.70
2019,03,08,14,45,4.70
2019,03,08,14,46,4.80
2019,03,08,14,47,4.80
2019,03,08,14,48,4.80
2019,03,08,14,49,4.80
2019,03,08,14,50,4.70
2019,03,08,14,51,4.70
2019,03,08,14,52,4.80
2019,03,08,14,53,4.80
2019,03,08,14,54,4.80
2019,03,08,14,55,4.80
2019,03,08,14,56,4.80
2019,03,08,14,57,4.80
2019,03,08,14,58,4.80
2019,03,08,14,59,4.80
2019,03,08,15,00,4.80
2019,03,08,15,01,4.80
2019,03,08,15,02,4.80
2019,03,08,15,03,4.90
2019,03,08,15,04,4.90
2019,03,08,15,05,4.90
2019,03,08,15,06,4.90
2019,03,08,15,07,4.90
2019,03,08,15,08,4.90
2019,03,08,15,09,4.90
2019,03,08,15,10,4.90
2019,03,08,15,11,4.90
2019,03,08,15,12,4.90
2019,03,08,15,13,4.90
2019,03,08,15,14,4.90
2019,03,08,15,15,4.90
2019,03,08,15,16,4.90
2019,03,08,15,17,4.90
2019,03,08,15,18,5.00
2019,03,08,15,19,5.00
2019,03,08,15,20,5.10
2019,03,08,15,21,5.10
2019,03,08,15,22,5.10
2019,03,08,15,23,5.20
2019,03,08,15,24,5.20
2019,03,08,15,25,5.20
2019,03,08,15,26,5.30
2019,03,08,15,27,5.30
2019,03,08,15,28,5.30
2019,03,08,15,29,5.20
2019,03,08,15,30,5.20
2019,03,08,15,31,5.20
2019,03,08,15,32,5.20
2019,03,08,15,33,5.30
2019,03,08,15,34,5.30
2019,03,08,15,35,5.40
2019,03,08,15,36,5.50
2019,03,08,15,37,5.50
2019,03,08,15,38,5.50
2019,03,08,15,39,5.60
2019,03,08,15,40,5.60
2019,03,08,15,41,5.60
2019,03,08,15,42,5.70
2019,03,08,15,43,5.70
2019,03,08,15,44,5.70
2019,03,08,15,45,5.70
2019,03,08,15,46,5.70
2019,03,08,15,47,5.70
2019,03,08,15,48,5.70
2019,03,08,15,49,5.80
2019,03,08,15,50,5.80
2019,03,08,15,51,5.80
2019,03,08,15,52,5.80
2019,03,08,15,53,5.90
2019,03,08,15,54,5.90
2019,03,08,15,55,5.90
2019,03,08,15,56,5.90
2019,03,08,15,57,6.00
2019,03,08,15,58,6.00
2019,03,08,15,59,6.00
2019,03,08,16,00,6.10
2019,03,08,16,01,6.10
2019,03,08,16,02,6.20
2019,03,08,16,03,6.20
2019,03,08,16,04,6.20
2019,03,08,16,05,6.20
2019,03,08,16,06,6.20
2019,03,08,16,07,6.20
2019,03,08,16,08,6.20
2019,03,08,16,09,6.20
2019,03,08,16,10,6.20
2019,03,08,16,11,6.20
2019,03,08,16,12,6.30
2019,03,08,16,13,6.30
2019,03,08,16,14,6.30
2019,03,08,16,15,6.30
2019,03,08,16,16,6.30
2019,03,08,16,17,6.40
2019,03,08,16,18,6.40
2019,03,08,16,19,6.40
2019,03,08,16,20,6.40
2019,03,08,16,21,6.40
2019,03,08,16,22,6.40
2019,03,08,16,23,6.30
2019,03,08,16,24,6.30
2019,03,08,16,25,6.40
2019,03,08,16,26,6.30
2019,03,08,16,27,6.40
2019,03,08,16,28,6.30
2019,03,08,16,29,6.30
2019,03,08,16,30,6.30
2019,03,08,16,31,6.30
2019,03,08,16,32,6.30
2019,03,08,16,33,6.30
2019,03,08,16,34,6.30
2019,03,08,16,35,6.30
2019,03,08,16,36,6.20
2019,03,08,16,37,6.20
2019,03,08,16,38,6.20
2019,03,08,16,39,6.10
2019,03,08,16,40,6.10
2019,03,08,16,41,6.10
2019,03,08,16,42,6.10
2019,03,08,16,43,6.10
2019,03,08,16,44,6.00
2019,03,08,16,45,6.00
2019,03,08,16,46,6.00
2019,03,08,16,47,6.00
2019,03,08,16,48,5.90
2019,03,08,16,49,6.00
2019,03,08,16,50,6.00
2019,03,08,16,51,6.00
2019,03,08,16,52,6.00
2019,03,08,16,53,5.90
2019,03,08,16,54,5.90
2019,03,08,16,55,5.90
2019,03,08,16,56,5.80
2019,03,08,16,57,5.70
2019,03,08,16,58,5.60
2019,03,08,16,59,5.60
2019,03,08,17,00,5.50
2019,03,08,17,01,5.40
2019,03,08,17,02,5.30
2019,03,08,17,03,5.20
2019,03,08,17,04,5.20
2019,03,08,17,05,5.00
2019,03,08,17,06,4.90
2019,03,08,17,07,4.80
2019,03,08,17,08,4.80
2019,03,08,17,09,4.70
2019,03,08,17,10,4.50
2019,03,08,17,11,4.40
2019,03,08,17,12,4.30
2019,03,08,17,13,4.20
2019,03,08,17,14,4.20
2019,03,08,17,15,4.10
2019,03,08,17,16,4.00
2019,03,08,17,17,3.90
2019,03,08,17,18,3.80
2019,03,08,17,19,3.70
2019,03,08,17,20,3.60
2019,03,08,17,21,3.50
2019,03,08,17,22,3.40
2019,03,08,17,23,3.30
2019,03,08,17,24,3.20
2019,03,08,17,25,3.10
2019,03,08,17,26,3.10
2019,03,08,17,27,3.00
2019,03,08,17,28,3.00
2019,03,08,17,29,2.90
2019,03,08,17,30,2.90
2019,03,08,17,31,2.80
2019,03,08,17,32,2.80
2019,03,08,17,33,2.80
2019,03,08,17,34,2.70
2019,03,08,17,35,2.70
2019,03,08,17,36,2.60
2019,03,08,17,37,2.60
2019,03,08,17,38,2.60
2019,03,08,17,39,2.60
2019,03,08,17,40,2.50
2019,03,08,17,41,2.50
2019,03,08,17,42,2.40
2019,03,08,17,43,2.40
2019,03,08,17,44,2.40
2019,03,08,17,45,2.30
2019,03,08,17,46,2.30
2019,03,08,17,47,2.30
2019,03,08,17,48,2.30
2019,03,08,17,49,2.30
2019,03,08,17,50,2.20
2019,03,08,17,51,2.20
2019,03,08,17,52,2.20
2019,03,08,17,53,2.20
2019,03,08,17,54,2.20
2019,03,08,17,55,2.10
2019,03,08,17,56,2.10
2019,03,08,17,57,2.10
2019,03,08,17,58,2.10
2019,03,08,17,59,2.10
2019,03,08,18,00,2.00
2019,03,08,18,01,2.00
2019,03,08,18,02,1.90
2019,03,08,18,03,1.90
2019,03,08,18,04,1.90
2019,03,08,18,05,1.90
2019,03,08,18,06,1.80